Terug naar catalogus

SL-14 DEB

ActiefPO
NORAD 17269·DEBRIS·🇷🇺 Russia

Gelanceerd Dec 18, 1986 vanaf Plesetsk Cosmodrome

Loading…

Volgende Passages (komende 24 uur)

TLE

VersSource: Space-Track

Epoch: Sep 14, 2026, 11:55 UTC

1 17269U 86101D   26257.49702936  .00000308  00000-0  23287-3 0  9999
2 17269  82.6393 340.1525 0017166 102.4573 270.5441 13.91023682  9277

Volg SL-14 DEB in realtime met AllMySat

Download on the App Store